Regional Weather Roundup
Issued by NWS

Home | Current Version | Previous Version | Graphics & Text | Print | Product List | Glossary On
Versions: 1 2 3 4 5 6 7 8 9 10 11 12 13 14 15 16 17 18 19 20 21 22 23 24 25 26 27 28 29 30 31 32 33 34 35 36 37 38 39 40 41 42 43 44 45 46 47 48 49 50
000
ASUS43 KBIS 221002
RWRND

NORTH DAKOTA REGIONAL WEATHER ROUNDUP
NATIONAL WEATHER SERVICE BISMARCK ND
400 AM CST THU FEB 22 2018

NOTE: "FAIR" INDICATES FEW OR NO CLOUDS BELOW 12,000 FEET WITH NO
SIGNIFICANT WEATHER AND/OR OBSTRUCTIONS TO VISIBILITY.


NDZ001>003-009>011-017-221100-
NORTHWEST NORTH DAKOTA

CITY           SKY/WX    TMP DP  RH WIND       PRES   REMARKS
WILLISTON      FAIR      -8 -13  78 SW3       30.23F
MINOT          FAIR      -1  -8  72 S8        30.26F WCI -15
MINOT AFB      FAIR      -6 -12  77 SE5       30.25F WCI -18
$$

NDZ018>021-031>035-040>046-221100-
SOUTHWEST NORTH DAKOTA

CITY           SKY/WX    TMP DP  RH WIND       PRES   REMARKS
BISMARCK       FAIR      -7 -11  83 E6        30.32F WCI -20
DICKINSON      FAIR      -5 -13  68 CALM      30.16F
GARRISON         N/A     -7 -11  83 E3        30.27F
HETTINGER ARPT FAIR     -13 -19  75 CALM      30.19F
$$

NDZ004>008-012>016-024-026-027-054-221100-
NORTHEAST NORTH DAKOTA

CITY           SKY/WX    TMP DP  RH WIND       PRES   REMARKS
GRAND FORKS    FAIR      -3  -8  79 SE9       30.47F WCI -19
GRND FRKS AFB  CLEAR     -7 -12  79 S5        30.45F WCI -19
DEVILS LAKE    FAIR      -6  -9  86 SE6       30.36F WCI -19
$$

NDZ022-023-025-028>030-036>039-047>053-221100-
SOUTHEAST NORTH DAKOTA

CITY           SKY/WX    TMP DP  RH WIND       PRES   REMARKS
FARGO          FAIR       5  -1  76 SE10      30.47F WCI -10
JAMESTOWN      FAIR      -4  -7  87 S6        30.35F WCI -16
$$





USA.gov is the U.S. government's official web portal to all federal, state and local government web resources and services.